Regional Weather Roundup
Issued by NWS

Home | Current Version | Previous Version | Text Only | Print | Product List | Glossary Off
Versions: 1 2 3 4 5 6 7 8 9 10 11 12 13 14 15 16 17 18 19 20 21 22 23 24 25 26 27 28 29 30 31 32 33 34 35 36 37 38 39 40 41 42 43 44 45 46 47 48 49 50

381
ASUS43 KDMX 280308
RWRIA

WEATHER ROUNDUP FOR IOWA
NATIONAL WEATHER SERVICE DES MOINES IA
1000 PM CDT TUE SEP 27 2016

NOTE: "FAIR" INDICATES FEW OR NO CLOUDS BELOW 12,000 FEET WITH NO
SIGNIFICANT WEATHER AND/OR OBSTRUCTIONS TO VISIBILITY.

* - THESE STATIONS ARE NOT NWS STATIONS...THUS NOT UNDER NWS
QUALITY CONTROL.  THEY ALSO DO NOT REPORT WEATHER SUCH
AS PRECIPITATION OR FOG.

IAZ001>003-012>014-020>022-031>034-043>046-280400-
   NORTHWEST IOWA

CITY           SKY/WX    TMP DP  RH WIND       PRES   REMARKS
CARROLL *      PTCLDY    54  48  82 W6        29.85R
CHEROKEE *     CLEAR     54  46  72 N6        29.87R
DENISON *      CLEAR     54  48  82 CALM      29.84R
LE MARS *      CLEAR     55  46  71 CALM      29.89R
ORANGE CITY *  CLEAR     61  45  55 N7        29.89R
SHELDON *      CLEAR     50  45  81 N6        29.88R
SIOUX CITY     CLEAR     54  49  83 SW3       29.87R
SPENCER        CLOUDY    55  41  59 NW9       29.87R
STORM LAKE *   CLEAR     57  43  58 N8        29.87R
$$

IAZ055>058-069>071-079>083-090>094-280400-
   SOUTHWEST IOWA

CITY           SKY/WX    TMP DP  RH WIND       PRES   REMARKS
ATLANTIC *     CLEAR     55  50  82 CALM      29.85F
AUDUBON *      CLEAR     57  48  72 N3        29.85F
CLARINDA *       N/A     54  52  94 MISG      29.88R
COUNCIL BLFS * CLEAR     64  46  52 W3        29.87S
CRESTON *      CLEAR     57  46  67 W7        29.87S
HARLAN  *      CLEAR     54  48  82 CALM      29.89S
LAMONI         CLEAR     60  48  64 W8        29.85S
RED OAK *      MOCLDY    54  50  87 CALM      29.87R
SHENANDOAH *   CLEAR     55  52  88 CALM      29.87S
$$

IAZ047>049-059>061-072>074-084-280400-
   CENTRAL IOWA

CITY           SKY/WX    TMP DP  RH WIND       PRES   REMARKS
AMES           CLEAR     60  48  64 NW9       29.82R
ANKENY *         N/A    N/A N/A N/A MISG        N/A
BOONE *        CLEAR     61  45  55 NW6       29.82R
CHARITON *       N/A     57  46  67 W7        29.82F
DES MOINES     MOCLDY    63  48  58 NW5       29.82S
GRINNELL*      CLOUDY    60  46  60 W6        29.81S
KNOXVILLE *    CLOUDY    59  46  63 W7        29.80S
MARSHALLTOWN   CLOUDY    59  40  49 N8        29.81R
NEWTON *       CLOUDY    63  45  51 NW6       29.80S
PELLA *        PTCLDY    62  48  60 W6        29.81F
PERRY *          N/A     55  46  71 W6        29.84R
$$

IAZ004>006-015-016-023>025-035-036-280400-
   NORTH CENTRAL IOWA

CITY           SKY/WX    TMP DP  RH WIND       PRES   REMARKS
ALGONA *       CLOUDY    59  37  44 N12G18    29.86R
CLARION *      CLOUDY    59  37  44 N6        29.84R
ESTHERVILLE    CLOUDY    56  39  53 N10       29.87R
FORT DODGE *   CLOUDY    61  41  48 N7        29.85R
MASON CITY     CLOUDY    53  43  68 NE12      29.86R
FOREST CITY *  CLOUDY    54  41  62 N9        29.85R
WEBSTER CITY * CLOUDY    61  39  44 N10       29.82R
IOWA FALLS *   MOCLDY    60  37  41 N6        29.84R
$$

IAZ007>011-017>019-026>030-037>042-050>054-066-280400-
   NORTHEAST IOWA

CITY           SKY/WX    TMP DP  RH WIND       PRES   REMARKS
CEDAR RAPIDS   PTCLDY    60  42  51 NW8       29.79R
CHARLES CITY * CLOUDY    54  45  71 N13G22    29.84R
DECORAH *      CLOUDY    50  46  87 N7        29.82S
DUBUQUE        CLOUDY    55  44  66 NE15      29.81R
MONTICELLO *   CLOUDY    57  45  62 NW5       29.79R
OELWEIN *      CLOUDY    57  43  58 N13G21    29.81S
WATERLOO       CLOUDY    58  38  47 N9        29.81R
$$

IAZ064-065-067-068-078-280400-
   EAST CENTRAL IOWA

CITY           SKY/WX    TMP DP  RH WIND       PRES   REMARKS
DAVENPORT      PTCLDY    57  42  57 W5        29.78S
IOWA CITY      PTCLDY    62  43  49 NW7       29.80R
MT. PLEASANT * CLOUDY    62  48  61 W5        29.79F
MUSCATINE *    CLOUDY    63  45  51 SW8       29.78S
QUAD CITIES    CLOUDY    61  46  57 N3        29.77S
$$

IAZ062-063-075>077-085>089-095>099-280400-
   SOUTHEAST IOWA

CITY           SKY/WX    TMP DP  RH WIND       PRES   REMARKS
BURLINGTON     CLOUDY    61  46  57 SW6       29.78F
FAIRFIELD *    CLOUDY    61  45  55 W6        29.79F
FORT MADISON * CLOUDY    64  45  48 SW3       29.80F
KEOKUK *       CLOUDY    63  46  55 SW7       29.80F
OSKALOOSA *      N/A     58  46  64 W6        29.80F
CENTERVILLE *    N/A     57  45  62 CALM      29.84F
OTTUMWA        PTCLDY   N/A N/A N/A W7        29.80S
WASHINGTON *     N/A    N/A N/A N/A MISG        N/A
$$

ABBREVIATIONS USED IN REMARKS
   TC - TEMPERATURES IN CELSIUS
  WCI - WIND CHILL INDEX
   HX - HEAT INDEX
  VSB - VISIBILITY
$$





USA.gov is the U.S. government's official web portal to all federal, state and local government web resources and services.